When you browse on this site, cookies collect data to enhance your experience and personalize the content and advertising you see.
Visit our Privacy Policy to learn more. By continuing to use the site, you agree to this use of cookies and data.
  • In United Kingdom
  • List of Countries
  • For 7 days
  • Water Temperature
  • Weather Map
  • Weather Widgets
  • user-avatar
    Login

    Hourly Weather Gaesti

    Today, 20 September, Friday

    Time Temperature Precipitation Wind Pressure Humidity
    00:00 +15°C° 0 mm 2 mps 748 mmHg 52%
    01:00 +14°C° 0 mm 2 mps 748 mmHg 54%
    02:00 +14°C° 0 mm 2 mps 748 mmHg 55%
    03:00 +13°C° 0 mm 2 mps 749 mmHg 56%
    04:00 +13°C° 0 mm 2 mps 749 mmHg 57%
    05:00 +13°C° 0 mm 2 mps 749 mmHg 59%
    06:00 +13°C° 0 mm 2 mps 749 mmHg 57%
    07:00 +14°C° 0 mm 2 mps 749 mmHg 56%
    08:00 +14°C° 0 mm 2 mps 749 mmHg 54%
    09:00 +15°C° 0 mm 2 mps 749 mmHg 49%
    10:00 +17°C° 0 mm 2 mps 749 mmHg 43%
    11:00 +18°C° 0 mm 2 mps 749 mmHg 38%
    12:00 +18°C° 0 mm 2 mps 749 mmHg 34%
    13:00 +19°C° 0 mm 2 mps 749 mmHg 31%
    14:00 +20°C° 0 mm 3 mps 749 mmHg 27%
    15:00 +20°C° 0 mm 3 mps 749 mmHg 26%
    16:00 +20°C° 0 mm 3 mps 749 mmHg 25%
    17:00 +20°C° 0 mm 4 mps 749 mmHg 23%
    18:00 +18°C° 0 mm 3 mps 749 mmHg 28%
    19:00 +16°C° 0 mm 3 mps 750 mmHg 33%
    20:00 +13°C° 0 mm 2 mps 750 mmHg 37%
    21:00 +13°C° 0 mm 2 mps 750 mmHg 38%
    22:00 +12°C° 0 mm 2 mps 751 mmHg 38%
    23:00 +10°C° 0 mm 2 mps 751 mmHg 39%

    Tomorrow, 21 September, Saturday

    Time Temperature Precipitation Wind Pressure Humidity
    00:00 +9°C° 0 mm 2 mps 751 mmHg 43%
    01:00 +9°C° 0 mm 2 mps 751 mmHg 48%
    02:00 +8°C° 0 mm 2 mps 751 mmHg 52%
    03:00 +8°C° 0 mm 2 mps 752 mmHg 53%
    04:00 +7°C° 0 mm 2 mps 752 mmHg 54%
    05:00 +7°C° 0 mm 2 mps 752 mmHg 56%
    06:00 +9°C° 0 mm 2 mps 752 mmHg 51%
    07:00 +10°C° 0 mm 2 mps 752 mmHg 46%
    08:00 +12°C° 0 mm 2 mps 752 mmHg 41%
    09:00 +14°C° 0 mm 2 mps 752 mmHg 37%
    10:00 +16°C° 0 mm 2 mps 752 mmHg 33%
    11:00 +17°C° 0 mm 2 mps 752 mmHg 29%
    12:00 +19°C° 0 mm 2 mps 752 mmHg 27%
    13:00 +20°C° 0 mm 2 mps 751 mmHg 24%
    14:00 +22°C° 0 mm 1 mps 751 mmHg 22%
    15:00 +22°C° 0 mm 1 mps 751 mmHg 22%
    16:00 +21°C° 0 mm 1 mps 750 mmHg 22%
    17:00 +21°C° 0 mm 1 mps 750 mmHg 22%
    18:00 +19°C° 0 mm 1 mps 750 mmHg 26%
    19:00 +16°C° 0 mm 1 mps 751 mmHg 30%
    20:00 +14°C° 0 mm 1 mps 751 mmHg 33%
    21:00 +13°C° 0 mm 1 mps 751 mmHg 35%
    22:00 +13°C° 0 mm 1 mps 751 mmHg 37%
    23:00 +12°C° 0 mm 1 mps 751 mmHg 39%

    Day after tomorrow, 22 September, Sunday

    Time Temperature Precipitation Wind Pressure Humidity
    00:00 +12°C° 0 mm 1 mps 751 mmHg 40%
    01:00 +11°C° 0 mm 1 mps 751 mmHg 42%
    02:00 +11°C° 0 mm 1 mps 751 mmHg 43%
    03:00 +11°C° 0 mm 1 mps 750 mmHg 44%
    04:00 +10°C° 0 mm 1 mps 750 mmHg 44%
    05:00 +10°C° 0 mm 1 mps 750 mmHg 45%
    06:00 +12°C° 0 mm 1 mps 750 mmHg 41%
    07:00 +14°C° 0 mm 1 mps 750 mmHg 37%
    08:00 +15°C° 0 mm 1 mps 750 mmHg 33%
    09:00 +19°C° 0 mm 1 mps 750 mmHg 29%
    10:00 +20°C° 0 mm 2 mps 750 mmHg 25%
    11:00 +23°C° 0 mm 2 mps 750 mmHg 21%
    12:00 +24°C° 0 mm 2 mps 749 mmHg 20%
    13:00 +25°C° 0 mm 2 mps 748 mmHg 18%
    14:00 +26°C° 0 mm 2 mps 748 mmHg 17%
    15:00 +26°C° 0 mm 2 mps 747 mmHg 18%
    16:00 +25°C° 0 mm 2 mps 747 mmHg 18%
    17:00 +25°C° 0 mm 2 mps 746 mmHg 18%
    18:00 +23°C° 0 mm 1 mps 746 mmHg 22%
    19:00 +20°C° 0 mm 1 mps 747 mmHg 26%
    20:00 +18°C° 0 mm 1 mps 747 mmHg 30%
    21:00 +16°C° 0 mm 1 mps 747 mmHg 31%
    22:00 +15°C° 0 mm 1 mps 747 mmHg 33%
    23:00 +15°C° 0 mm 2 mps 747 mmHg 35%

    23 September, Monday

    Time Temperature Precipitation Wind Pressure Humidity
    00:00 +14°C° 0 mm 2 mps 747 mmHg 36%
    01:00 +14°C° 0 mm 2 mps 747 mmHg 38%
    02:00 +13°C° 0 mm 1 mps 746 mmHg 39%
    03:00 +13°C° 0 mm 2 mps 746 mmHg 40%
    04:00 +12°C° 0 mm 2 mps 746 mmHg 41%
    05:00 +12°C° 0 mm 2 mps 746 mmHg 42%
    06:00 +14°C° 0 mm 2 mps 746 mmHg 39%
    07:00 +15°C° 0 mm 2 mps 745 mmHg 37%
    08:00 +16°C° 0 mm 2 mps 745 mmHg 34%
    09:00 +19°C° 0 mm 2 mps 745 mmHg 30%
    10:00 +21°C° 0 mm 2 mps 745 mmHg 27%
    11:00 +24°C° 0 mm 2 mps 745 mmHg 23%
    12:00 +25°C° 0 mm 2 mps 744 mmHg 22%
    13:00 +26°C° 0 mm 2 mps 743 mmHg 20%
    14:00 +28°C° 0 mm 1 mps 743 mmHg 18%
    15:00 +27°C° 0 mm 1 mps 742 mmHg 19%
    16:00 +27°C° 0 mm 1 mps 742 mmHg 20%
    17:00 +27°C° 0 mm 1 mps 742 mmHg 21%
    18:00 +25°C° 0 mm 1 mps 742 mmHg 23%
    19:00 +24°C° 0 mm 1 mps 742 mmHg 24%
    20:00 +23°C° 0 mm 1 mps 742 mmHg 26%
    21:00 +22°C° 0 mm 1 mps 742 mmHg 27%
    22:00 +22°C° 0 mm 1 mps 741 mmHg 28%
    23:00 +21°C° 0 mm 1 mps 741 mmHg 29%

    24 September, Tuesday

    Time Temperature Precipitation Wind Pressure Humidity
    00:00 +20°C° 0 mm 1 mps 741 mmHg 35%
    01:00 +18°C° 0 mm 2 mps 741 mmHg 41%
    02:00 +17°C° 0 mm 2 mps 740 mmHg 47%
    03:00 +16°C° 0 mm 2 mps 740 mmHg 53%
    04:00 +15°C° 0 mm 2 mps 740 mmHg 59%
    05:00 +15°C° 0 mm 2 mps 739 mmHg 66%
    06:00 +16°C° 0 mm 2 mps 739 mmHg 62%
    07:00 +18°C° 0 mm 1 mps 739 mmHg 59%
    08:00 +19°C° 0 mm 1 mps 739 mmHg 56%
    09:00 +19°C° 0.1 mm 1 mps 739 mmHg 58%
    10:00 +19°C° 0.1 mm 1 mps 739 mmHg 60%
    11:00 +19°C° 0.1 mm 1 mps 739 mmHg 62%
    12:00 +19°C° 0.1 mm 1 mps 739 mmHg 62%
    13:00 +18°C° 0.1 mm 2 mps 739 mmHg 61%
    14:00 +18°C° 0.1 mm 2 mps 738 mmHg 61%
    15:00 +18°C° 0.2 mm 2 mps 739 mmHg 63%
    16:00 +18°C° 0.2 mm 2 mps 739 mmHg 65%
    17:00 +18°C° 0.2 mm 2 mps 739 mmHg 67%
    18:00 +17°C° 0.1 mm 2 mps 739 mmHg 73%
    19:00 +16°C° 0.1 mm 2 mps 739 mmHg 79%
    20:00 +15°C° 0.1 mm 2 mps 740 mmHg 85%
    21:00 +15°C° 0 mm 2 mps 740 mmHg 85%
    22:00 +15°C° 0 mm 2 mps 740 mmHg 86%
    23:00 +15°C° 0 mm 2 mps 740 mmHg 86%

    25 September, Wednesday

    Time Temperature Precipitation Wind Pressure Humidity
    00:00 +15°C° 0 mm 1 mps 740 mmHg 86%
    01:00 +15°C° 0 mm 1 mps 740 mmHg 86%
    02:00 +14°C° 0 mm 0 mps 740 mmHg 85%
    03:00 +14°C° 0 mm 0 mps 741 mmHg 85%
    04:00 +14°C° 0 mm 0 mps 741 mmHg 85%
    05:00 +14°C° 0 mm 0 mps 741 mmHg 85%
    06:00 +15°C° 0 mm 0 mps 741 mmHg 83%
    07:00 +15°C° 0 mm 0 mps 741 mmHg 81%
    08:00 +15°C° 0 mm 0 mps 741 mmHg 79%
    09:00 +18°C° 0 mm 1 mps 742 mmHg 76%
    10:00 +19°C° 0 mm 1 mps 742 mmHg 74%
    11:00 +20°C° 0 mm 1 mps 742 mmHg 71%
    12:00 +21°C° 0 mm 1 mps 742 mmHg 66%
    13:00 +22°C° 0 mm 1 mps 742 mmHg 62%
    14:00 +23°C° 0 mm 1 mps 742 mmHg 57%
    15:00 +23°C° 0 mm 1 mps 742 mmHg 57%
    16:00 +23°C° 0 mm 1 mps 742 mmHg 57%
    17:00 +23°C° 0 mm 2 mps 742 mmHg 57%
    18:00 +20°C° 0 mm 2 mps 742 mmHg 62%
    19:00 +19°C° 0 mm 2 mps 743 mmHg 68%
    20:00 +18°C° 0 mm 2 mps 743 mmHg 73%
    21:00 +17°C° 0 mm 2 mps 743 mmHg 78%
    22:00 +16°C° 0 mm 2 mps 743 mmHg 82%
    23:00 +15°C° 0 mm 1 mps 743 mmHg 86%
    Show more